2018 UA Plumbers & Pipefitters 5k Pub Crawl Event

Downtown Ann Arbor
2018-08-13
Starts on: 2018-08-13
Where: Downtown Ann Arbor
Categories: 5k Run/Walk 5k and Pub Crawl Pub Crawl
Description: Start and Finish Main and Liberty in Downtown Ann Arbor - join us on August 13, 2018 for the UA Plumbers & Pipe Fitters 5K and Pub Crawl! In collaboration with the Ann Arbor Convention & Visitors Bureau.
M50-59 5k run/walk
name bib rank time pace hometown
Ty Tessmer 73 1 00:20:29.390 06:36 Ann Arbor, MI
JEFFREY CLARK 147 2 00:22:03.270 07:06 ANN ARBOR, MI
George Ketzner 162 3 00:25:08.490 08:06 Dexter, MI
Michael Munson 298 4 00:25:41.790 08:16 Ann Arbor, MI
Dan Coady 254 5 00:25:49.920 08:19 Braintree, MA
Travis Watson 114 6 00:25:56.580 08:21 Noble, OK
Randy Lorge 43 7 00:26:35.220 08:34 Shawano, WI
William Benbow 111 8 00:26:41.660 08:36 Martinsburg, WV
Rich Gonzalez 149 9 00:27:36.840 08:53 Ann Arbor, MI
Russ Corr 299 10 00:29:05.920 09:22 Haverhill, MA
Daniel Feder 272 11 00:29:06.960 09:22 Ann Arbor, MI
Gregory Tyler 194 12 00:29:09.810 09:23 Ypsilanti, MI
Will Nickell 103 13 00:30:04.610 09:41 West Valley, UT
Rick Gale 184 14 00:30:11.120 09:43 Woodbury, MN
David Atkins 145 15 00:30:51.890 09:56 Canton, MI
Tony Esposito 231 16 00:32:19.370 10:24 Ann Arbor, MI
Robert Fore 68 17 00:33:16.970 10:43 Roseville, CA
David Gibson 18 18 00:33:20.820 10:44 Auburn, WA
Glen Breaux 132 19 00:34:16.350 11:02 Grand Rapids, MI
William Linkins 30 20 00:34:39.100 11:09 Centreville, MD
George Sotiropoulos 201 21 00:34:43.860 11:11 Saline, MI
Darin Nordenstrom 127 22 00:36:06.710 11:38 Los Angeles, CA
James Musial 172 23 00:36:19.690 11:42 New Boston, MI
Jeff Reiter 122 24 00:36:30.900 11:45 Kenosha, WI
Gerald Trevino 237 25 00:41:04.600 13:13 Los Angeles, CA
Bryan Lee 32 26 00:41:26.990 13:21 Chicago, IL
Domingo Valadez 152 27 00:43:38.460 14:03 Temperance, MI
Chuck Graham 41 28 00:45:01.640 14:30 Louisville, KY
Dale Odell 161 29 00:49:52.510 16:03 Victorville, CA
John Pint 26 30 00:55:13.250 17:47 Walker, IA